PAL195 RPLL-RPVM

Flight info

Callsign PAL195
Flight time 0h 52m
Altitude 33000
Route IPATA2R IPATA W25 BATAY BATAY3P
Aircraft B77W/H-SDE3FGHIM3RWXY/LB1

Departure

Time 2026-05-06 14:07
Airport Ninoy Aquino International Airport (RPLL)

Arrival

Time 2026-05-06 15:00
Airport Mactan Cebu International Airport (RPVM)
Time Latitude Longitude Altitude Speed Heading
2026-05-06 13:40 14.50339 121.00433 85 ft 0 kts 18°
2026-05-06 13:56 14.50337 121.00431 85 ft 2 kts 19°
2026-05-06 13:56 14.50323 121.00426 85 ft 2 kts 22°
2026-05-06 13:57 14.50309 121.00420 85 ft 2 kts 21°
2026-05-06 13:57 14.50295 121.00415 85 ft 2 kts 21°
2026-05-06 13:57 14.50285 121.00410 85 ft 0 kts 21°
2026-05-06 13:57 14.50272 121.00408 85 ft 2 kts 340°
2026-05-06 13:58 14.50261 121.00417 85 ft 2 kts 294°
2026-05-06 13:58 14.50259 121.00432 85 ft 2 kts 251°
2026-05-06 13:58 14.50262 121.00438 85 ft 1 kts 239°
2026-05-06 13:58 14.50263 121.00440 85 ft 0 kts 239°
2026-05-06 14:01 14.50261 121.00436 85 ft 2 kts 240°
2026-05-06 14:02 14.50240 121.00399 85 ft 7 kts 240°
2026-05-06 14:02 14.50224 121.00369 85 ft 7 kts 241°
2026-05-06 14:02 14.50186 121.00333 85 ft 4 kts 187°
2026-05-06 14:02 14.50146 121.00336 85 ft 6 kts 187°
2026-05-06 14:03 14.50103 121.00298 85 ft 10 kts 237°
2026-05-06 14:03 14.50066 121.00234 85 ft 9 kts 238°
2026-05-06 14:03 14.50034 121.00177 85 ft 8 kts 240°
2026-05-06 14:03 14.50016 121.00143 85 ft 7 kts 240°
2026-05-06 14:04 14.49938 121.00002 85 ft 8 kts 239°
2026-05-06 14:04 14.49902 120.99966 85 ft 5 kts 196°
2026-05-06 14:04 14.49877 120.99968 85 ft 0 kts 155°
2026-05-06 14:05 14.49873 120.99970 85 ft 2 kts 155°
2026-05-06 14:05 14.49842 120.99985 85 ft 6 kts 152°
2026-05-06 14:05 14.49807 121.00015 85 ft 5 kts 123°
2026-05-06 14:06 14.49802 121.00047 85 ft 3 kts 77°
2026-05-06 14:06 14.49805 121.00054 85 ft 3 kts 69°
2026-05-06 14:06 14.49950 121.00312 85 ft 60 kts 60°
2026-05-06 14:07 14.51031 121.02251 158 ft 158 kts 62°
2026-05-06 14:07 14.51604 121.03269 394 ft 170 kts 62°
2026-05-06 14:07 14.52196 121.04311 882 ft 167 kts 60°
2026-05-06 14:08 14.52773 121.05309 1432 ft 161 kts 60°
2026-05-06 14:08 14.53367 121.06358 1689 ft 177 kts 59°
2026-05-06 14:08 14.54004 121.07504 2052 ft 188 kts 59°
2026-05-06 14:08 14.54630 121.08664 2587 ft 189 kts 59°
2026-05-06 14:09 14.55339 121.09960 2573 ft 226 kts 59°
2026-05-06 14:09 14.56124 121.11471 2832 ft 252 kts 68°
2026-05-06 14:09 14.56310 121.13324 3385 ft 268 kts 99°
2026-05-06 14:09 14.55538 121.15060 4218 ft 273 kts 128°
2026-05-06 14:10 14.54039 121.16226 5017 ft 279 kts 156°
2026-05-06 14:10 14.52170 121.16799 5809 ft 282 kts 162°
2026-05-06 14:10 14.50344 121.17529 6579 ft 282 kts 149°
2026-05-06 14:10 14.48671 121.18604 7344 ft 284 kts 141°
2026-05-06 14:11 14.47102 121.19846 8083 ft 286 kts 137°
2026-05-06 14:11 14.45599 121.21167 8827 ft 288 kts 135°
2026-05-06 14:11 14.44110 121.22567 9555 ft 291 kts 134°
2026-05-06 14:11 14.42630 121.24016 10309 ft 295 kts 133°
2026-05-06 14:12 14.41091 121.25556 10476 ft 322 kts 133°
2026-05-06 14:12 14.39425 121.27248 10541 ft 353 kts 133°
2026-05-06 14:12 14.37616 121.29092 10950 ft 372 kts 133°
2026-05-06 14:12 14.35769 121.30978 11848 ft 376 kts 133°
2026-05-06 14:13 14.33908 121.32883 12646 ft 382 kts 133°
2026-05-06 14:13 14.32032 121.34807 13448 ft 387 kts 133°
2026-05-06 14:13 14.30094 121.36794 14262 ft 392 kts 133°
2026-05-06 14:13 14.28173 121.38765 15044 ft 397 kts 133°
2026-05-06 14:14 14.26192 121.40796 15859 ft 401 kts 133°
2026-05-06 14:14 14.24228 121.42810 16629 ft 406 kts 133°
2026-05-06 14:14 14.22212 121.44876 17406 ft 411 kts 134°
2026-05-06 14:14 14.20170 121.46970 18184 ft 416 kts 134°
2026-05-06 14:15 14.18106 121.49084 18960 ft 421 kts 134°
2026-05-06 14:15 14.16042 121.51198 19726 ft 425 kts 134°
2026-05-06 14:15 14.13928 121.53364 20408 ft 430 kts 134°
2026-05-06 14:15 14.11787 121.55556 21085 ft 435 kts 134°
2026-05-06 14:16 14.09639 121.57754 21710 ft 439 kts 134°
2026-05-06 14:16 14.07464 121.59981 22299 ft 444 kts 134°
2026-05-06 14:16 14.05262 121.62232 22900 ft 448 kts 134°
2026-05-06 14:16 14.03067 121.64477 23445 ft 452 kts 134°
2026-05-06 14:17 14.00834 121.66760 24014 ft 455 kts 134°
2026-05-06 14:17 13.98553 121.69093 24570 ft 459 kts 134°
2026-05-06 14:17 13.96296 121.71399 25091 ft 462 kts 135°
2026-05-06 14:17 13.94003 121.73741 25581 ft 466 kts 135°
2026-05-06 14:18 13.91689 121.76103 26024 ft 470 kts 135°
2026-05-06 14:18 13.89358 121.78484 26458 ft 474 kts 135°
2026-05-06 14:18 13.86980 121.80859 26857 ft 478 kts 138°
2026-05-06 14:18 13.84361 121.82960 27247 ft 481 kts 144°
2026-05-06 14:19 13.81644 121.85021 27617 ft 484 kts 143°
2026-05-06 14:19 13.78923 121.87082 28044 ft 486 kts 143°
2026-05-06 14:19 13.76181 121.89159 28385 ft 490 kts 143°
2026-05-06 14:19 13.73427 121.91239 28780 ft 491 kts 143°
2026-05-06 14:20 13.70692 121.93305 29305 ft 490 kts 144°
2026-05-06 14:20 13.67931 121.95389 29811 ft 488 kts 144°
2026-05-06 14:20 13.65182 121.97463 30313 ft 486 kts 144°
2026-05-06 14:20 13.62493 121.99490 30811 ft 484 kts 144°
2026-05-06 14:21 13.59762 122.01547 31333 ft 481 kts 144°
2026-05-06 14:21 13.57055 122.03587 31764 ft 481 kts 144°
2026-05-06 14:21 13.54389 122.05595 32200 ft 480 kts 145°
2026-05-06 14:21 13.51680 122.07633 32657 ft 478 kts 145°
2026-05-06 14:22 13.49010 122.09644 32943 ft 475 kts 145°
2026-05-06 14:22 13.46362 122.11636 32914 ft 473 kts 145°
2026-05-06 14:22 13.41006 122.15662 32936 ft 475 kts 145°
2026-05-06 14:23 13.35662 122.19678 32931 ft 476 kts 145°
2026-05-06 14:23 13.30317 122.23692 32922 ft 475 kts 145°
2026-05-06 14:24 13.24960 122.27715 32915 ft 475 kts 145°
2026-05-06 14:24 13.19623 122.31718 32913 ft 475 kts 145°
2026-05-06 14:25 13.14258 122.35741 32913 ft 475 kts 145°
2026-05-06 14:25 13.08929 122.39735 32909 ft 475 kts 145°
2026-05-06 14:26 13.03610 122.43720 32911 ft 474 kts 145°
2026-05-06 14:26 12.98251 122.47731 32911 ft 474 kts 145°
2026-05-06 14:27 12.92952 122.51697 32910 ft 473 kts 145°
2026-05-06 14:27 12.87626 122.55679 32911 ft 473 kts 145°
2026-05-06 14:28 12.82306 122.59655 32911 ft 473 kts 145°
2026-05-06 14:28 12.76982 122.63632 32909 ft 472 kts 145°
2026-05-06 14:29 12.71662 122.67605 32901 ft 472 kts 145°
2026-05-06 14:29 12.66364 122.71558 32904 ft 472 kts 145°
2026-05-06 14:30 12.61035 122.75532 32900 ft 472 kts 145°
2026-05-06 14:30 12.55742 122.79478 32899 ft 472 kts 145°
2026-05-06 14:31 12.50422 122.83443 32899 ft 471 kts 145°
2026-05-06 14:31 12.45145 122.87372 32901 ft 469 kts 145°
2026-05-06 14:32 12.39852 122.91311 32894 ft 470 kts 145°
2026-05-06 14:32 12.34575 122.95238 32889 ft 470 kts 145°
2026-05-06 14:33 12.29248 122.99197 32890 ft 470 kts 145°
2026-05-06 14:33 12.23970 123.03120 32890 ft 471 kts 145°
2026-05-06 14:34 12.18653 123.07069 32891 ft 472 kts 145°
2026-05-06 14:34 12.13358 123.11000 32893 ft 472 kts 144°
2026-05-06 14:35 12.08928 123.14288 32893 ft 471 kts 145°
2026-05-06 14:36 11.97920 123.22450 32893 ft 470 kts 144°
2026-05-06 14:36 11.92595 123.26395 32893 ft 471 kts 145°
2026-05-06 14:37 11.87295 123.30321 32893 ft 471 kts 144°
2026-05-06 14:37 11.82000 123.34240 32891 ft 470 kts 144°
2026-05-06 14:38 11.76673 123.38180 32892 ft 471 kts 144°
2026-05-06 14:38 11.71370 123.42102 32890 ft 472 kts 144°
2026-05-06 14:39 11.66052 123.46034 32897 ft 471 kts 144°
2026-05-06 14:39 11.60743 123.49956 32896 ft 470 kts 144°
2026-05-06 14:40 11.55462 123.53856 32897 ft 470 kts 144°
2026-05-06 14:40 11.50173 123.57759 32902 ft 469 kts 144°
2026-05-06 14:41 11.44850 123.61685 32897 ft 470 kts 144°
2026-05-06 14:41 11.39557 123.65588 32893 ft 470 kts 144°
2026-05-06 14:42 11.34266 123.69488 32891 ft 470 kts 144°
2026-05-06 14:42 11.31606 123.71448 32726 ft 471 kts 144°
2026-05-06 14:42 11.28955 123.73401 31793 ft 474 kts 144°
2026-05-06 14:43 11.26303 123.75353 31051 ft 471 kts 144°
2026-05-06 14:43 11.23642 123.77312 30291 ft 469 kts 144°
2026-05-06 14:43 11.20963 123.79240 29538 ft 472 kts 147°
2026-05-06 14:43 11.18065 123.80817 28804 ft 475 kts 156°
2026-05-06 14:44 11.14929 123.81914 28078 ft 475 kts 166°
2026-05-06 14:44 11.11708 123.82488 27362 ft 472 kts 175°
2026-05-06 14:44 11.08453 123.82539 26641 ft 466 kts 184°
2026-05-06 14:45 11.02148 123.81222 25181 ft 455 kts 194°
2026-05-06 14:45 10.99143 123.80405 24457 ft 450 kts 194°
2026-05-06 14:45 10.96121 123.79569 23723 ft 446 kts 194°
2026-05-06 14:45 10.93148 123.78745 23005 ft 442 kts 194°
2026-05-06 14:46 10.90196 123.77924 22283 ft 435 kts 194°
2026-05-06 14:46 10.87298 123.77117 21582 ft 430 kts 194°
2026-05-06 14:46 10.84423 123.76316 20881 ft 426 kts 194°
2026-05-06 14:46 10.81553 123.75516 20173 ft 422 kts 194°
2026-05-06 14:47 10.78750 123.74734 19478 ft 419 kts 194°
2026-05-06 14:47 10.75925 123.73946 18768 ft 416 kts 194°
2026-05-06 14:47 10.73161 123.73176 18073 ft 412 kts 193°
2026-05-06 14:47 10.70405 123.72407 17367 ft 408 kts 193°
2026-05-06 14:48 10.67688 123.71652 16793 ft 407 kts 193°
2026-05-06 14:48 10.64960 123.70891 15995 ft 402 kts 193°
2026-05-06 14:48 10.62293 123.70148 15308 ft 396 kts 193°
2026-05-06 14:48 10.59657 123.69413 14608 ft 393 kts 193°
2026-05-06 14:49 10.57035 123.68684 13909 ft 389 kts 193°
2026-05-06 14:49 10.54431 123.67958 13288 ft 383 kts 193°
2026-05-06 14:49 10.51851 123.67241 12706 ft 382 kts 193°
2026-05-06 14:49 10.49327 123.66537 12124 ft 378 kts 193°
2026-05-06 14:50 10.46807 123.65836 11540 ft 371 kts 193°
2026-05-06 14:50 10.44341 123.65149 10939 ft 359 kts 193°
2026-05-06 14:50 10.42001 123.64497 10637 ft 340 kts 193°
2026-05-06 14:50 10.39725 123.63864 10051 ft 333 kts 193°
2026-05-06 14:51 10.37527 123.63391 9782 ft 312 kts 180°
2026-05-06 14:51 10.35450 123.63615 9599 ft 291 kts 156°
2026-05-06 14:51 10.33663 123.64491 9282 ft 286 kts 144°
2026-05-06 14:51 10.32036 123.65649 8933 ft 283 kts 139°
2026-05-06 14:52 10.30482 123.66929 8463 ft 288 kts 136°
2026-05-06 14:52 10.28986 123.68277 8006 ft 291 kts 134°
2026-05-06 14:52 10.27484 123.69703 7536 ft 295 kts 133°
2026-05-06 14:52 10.26026 123.71128 6986 ft 292 kts 133°
2026-05-06 14:53 10.24600 123.72544 6514 ft 285 kts 132°
2026-05-06 14:53 10.23203 123.73946 6103 ft 276 kts 132°
2026-05-06 14:53 10.21867 123.75290 5844 ft 265 kts 131°
2026-05-06 14:53 10.20573 123.76601 5363 ft 263 kts 131°
2026-05-06 14:54 10.19277 123.77914 4900 ft 259 kts 131°
2026-05-06 14:54 10.18022 123.79188 4424 ft 257 kts 131°
2026-05-06 14:54 10.16953 123.80607 3939 ft 249 kts 108°
2026-05-06 14:54 10.16726 123.82260 3651 ft 230 kts 76°
2026-05-06 14:55 10.17351 123.83669 3525 ft 212 kts 53°
2026-05-06 14:55 10.18219 123.84823 3380 ft 199 kts 51°
2026-05-06 14:55 10.19067 123.85868 3234 ft 186 kts 49°
2026-05-06 14:55 10.19932 123.86856 2899 ft 182 kts 47°
2026-05-06 14:56 10.20754 123.87753 2721 ft 172 kts 47°
2026-05-06 14:56 10.21608 123.88660 2280 ft 178 kts 46°
2026-05-06 14:56 10.22452 123.89537 2042 ft 168 kts 46°
2026-05-06 14:56 10.23232 123.90337 1850 ft 148 kts 46°
2026-05-06 14:57 10.23936 123.91055 1642 ft 136 kts 45°
2026-05-06 14:57 10.24594 123.91724 1470 ft 136 kts 46°
2026-05-06 14:57 10.25277 123.92415 1303 ft 141 kts 45°
2026-05-06 14:57 10.25911 123.93055 1124 ft 143 kts 44°
2026-05-06 14:58 10.25988 123.93134 1101 ft 144 kts 45°
2026-05-06 14:58 10.26690 123.93842 942 ft 140 kts 45°
2026-05-06 14:58 10.27380 123.94566 744 ft 144 kts 45°
2026-05-06 14:58 10.28108 123.95286 544 ft 146 kts 45°
2026-05-06 14:59 10.28823 123.96007 330 ft 145 kts 44°
2026-05-06 14:59 10.29537 123.96724 116 ft 144 kts 43°
2026-05-06 14:59 10.30188 123.97373 39 ft 82 kts 45°
2026-05-06 14:59 10.30506 123.97690 39 ft 63 kts 45°
2026-05-06 15:00 10.30710 123.97897 39 ft 35 kts 45°
2026-05-06 15:00 10.30879 123.98068 38 ft 32 kts 45°
2026-05-06 15:00 10.31027 123.98216 38 ft 24 kts 44°
2026-05-06 15:00 10.31138 123.98294 38 ft 18 kts 22°
2026-05-06 15:01 10.31228 123.98326 38 ft 12 kts 17°
2026-05-06 15:01 10.31306 123.98348 39 ft 11 kts
2026-05-06 15:01 10.31375 123.98336 39 ft 9 kts 326°
2026-05-06 15:01 10.31420 123.98296 39 ft 8 kts 315°
2026-05-06 15:02 10.31458 123.98257 39 ft 7 kts 314°
2026-05-06 15:02 10.31493 123.98222 39 ft 6 kts 315°
2026-05-06 15:02 10.31525 123.98188 39 ft 6 kts 314°
2026-05-06 15:02 10.31556 123.98156 39 ft 6 kts 313°
2026-05-06 15:03 10.31568 123.98124 39 ft 3 kts 270°
2026-05-06 15:03 10.31558 123.98101 39 ft 6 kts 234°
2026-05-06 15:03 10.31485 123.98022 39 ft 16 kts 225°
2026-05-06 15:03 10.31424 123.97959 39 ft 5 kts 231°
2026-05-06 15:04 10.31421 123.97934 39 ft 3 kts 286°
2026-05-06 15:04 10.31433 123.97912 39 ft 3 kts 305°
2026-05-06 15:04 10.31443 123.97902 39 ft 1 kts 314°
2026-05-06 15:04 10.31450 123.97894 39 ft 0 kts 314°